AirNav   Air Wisconsin pilot careers
 
 1217 users online  

3Y4 Woodbine Municipal Airport
Woodbine, Iowa, USA

GOING TO WOODBINE?


FAA INFORMATION EFFECTIVE 11 OCTOBER 2018

Location

FAA Identifier: 3Y4
Lat/Long: 41-44-09.9580N / 095-41-01.0220W
41-44.165967N / 095-41.017033W
41.7360994 / -95.6836172
(estimated)
Elevation: 1068 ft. / 325.5 m (surveyed)
Variation: 05E (1985)
From city: 1 mile E of WOODBINE, IA
Time zone: UTC -5 (UTC -6 during Standard Time)
Zip code: 51579

Airport Operations

Airport use: Open to the public
Activation date: 04/1960
Control tower: no
ARTCC: MINNEAPOLIS CENTER
FSS: FORT DODGE FLIGHT SERVICE STATION
NOTAMs facility: FOD (NOTAM-D service available)
Attendance: UNATNDD
Wind indicator: yes
Segmented circle: no
Lights: SS-SR

Airport Communications

CTAF: 122.9
WX AWOS-3 at HNR (18 nm SE): 118.325 (712-744-4400)

Nearby radio navigation aids

VOR radial/distance  VOR name  Freq  Var
OVRr356/34.2OMAHA VORTAC116.3008E

 
NDB name  Hdg/Dist  Freq  Var  ID
DENISON218/20.135004EDNS -.. -. ...

Airport Services

Airframe service: NONE
Powerplant service: NONE
Bottled oxygen: NONE
Bulk oxygen: NONE

Runway Information

Runway 17/35

Dimensions: 2045 x 95 ft. / 623 x 29 m
Surface: turf, in fair condition
Runway edge lights: low intensity
Runway edge markings: 17/35 EDGES MKD WITH YELLOW CONES; DSPLCD THLDS MKD WITH 3 YELLOW EACH SIDE.
RUNWAY 17  RUNWAY 35
Traffic pattern: leftleft
Displaced threshold: 455 ft.545 ft.
Obstructions: 89 ft. trees, 1330 ft. from runway, 110 ft. right of centerline, 14:1 slope to clear
APCH SLOPE 20:1 TO DSPLCD THLD.
102 ft. tree, 1520 ft. from runway, 45 ft. right of centerline, 14:1 slope to clear
APCH SLOPE 20:1 TO DSPLCD THLD.

Airport Ownership and Management from official FAA records

Ownership: Publicly-owned
Owner: CITY OF WOODBINE
517 WALKER ST
WOODBINE, IA 51579
Phone 712-647-2550
Manager: DENCIL HAMMACK
702 LINCOLNWAY STREET
WOODBINE, IA 51579-1032
Phone (712) 647-2443

Airport Operational Statistics

Aircraft based on the field: 3
Single engine airplanes: 2
Ultralights: 1
    
Aircraft operations: avg 42/month *
50% transient general aviation
50% local general aviation
* for 12-month period ending 31 July 2018

Additional Remarks

PLINE 165 FT EAST OF CNTRLN.
20' LGT POLES EAST EDGE OF HANGERS.

Instrument Procedures

There are no published instrument procedures at 3Y4.

Some nearby airports with instrument procedures:

KHNR - Harlan Municipal Airport (18 nm SE)
KDNS - Denison Municipal Airport (20 nm NE)
KTQE - Tekamah Municipal Airport (22 nm W)
KMEY - James G Whiting Memorial Field Airport (27 nm N)
KBTA - Blair Municipal Airport (27 nm SW)
 
Loc | Ops | Rwys | IFR | FBO | Links
Com | Nav | Svcs | Stats | Notes


 
Area around 3Y4 (Woodbine Municipal Airport)
 
Road maps at: MapQuest Bing Google
 
Aerial photo
No photo
 
Sectional chart

 
Airport distance calculator
Flying to Woodbine Municipal Airport? Find the distance to fly.

From to 3Y4

Sunrise and sunset
Times for 16-Oct-2018
 Local
(UTC-5)
 Zulu
(UTC)
Morning civil twilight07:0912:09
Sunrise07:3712:37
Sunset18:4023:40
Evening civil twilight19:0800:08

Current date and time
Zulu (UTC)  16-Oct-2018 13:17:39
Local (UTC-5)  16-Oct-2018 08:17:39
 
METAR
KHNR 
18nm SE 
161255Z AUTO 21005KT 10SM CLR M01/M01 A3017 RMK AO2
KDNS 
20nm NE 
161255Z AUTO 23004KT 10SM CLR 01/M02 A3016 RMK AO2
KTQE 
22nm W 
161254Z AUTO 21003KT 10SM CLR 01/M02 A3017 RMK AO2 SLP222 T00111022
KOMA 
27nm S 
161252Z 15006KT 10SM CLR 01/M02 A3019 RMK AO2 SLP229 T00111022
KBTA 
27nm SW 
161255Z AUTO 20006KT 10SM CLR 01/M02 A3017 RMK AO2 T00081020
KCBF 
28nm S 
161255Z AUTO 22008KT 10SM CLR 02/M01 A3017 RMK AO2
KADU 
34nm E 
161255Z AUTO 00000KT 10SM CLR 01/M02 A3017 RMK AO2
TAF
KOMA 
27nm S 
161120Z 1612/1712 16008KT P6SM SKC FM161800 29009KT P6SM SKC
NOTAMs
Click for the latest NOTAMs
NOTAMs are issued by the DoD/FAA and will open in a separate window not controlled by AirNav.

 

 
 

Would you like to see your business listed on this page?

 If your business provides an interesting product or service to pilots, flight crews, aircraft, or users of the Woodbine Municipal Airport, you should consider listing it here.  To start the listing process, click on the button below
 
Add a business
 

Other Pages about Woodbine Municipal Airport

Page from the Iowa Airport Directory
 
Update a link
 
Copyright © AirNav, LLC. All rights reserved. Privacy Policy  Contact